Latest Weather Observations for Mount Crawford

IDS60801

Issued at 11:35 am CST Thursday 24 July 2014 (issued every 30 minutes, with the page automatically refreshed every 10 minutes)

About weather observations | Map of weather stations | Latest weather observations for SA | Other Formats
Station Details ID: 023878 Name: MT CRAWFORD AWS Lat: -34.73 Lon: 138.93 Height: 525.0 m
Data from the previous 72 hours. | See also: Recent months at Mount Crawford
Date/Time
CST
Temp
°C
App
Temp
°C
Dew
Point
Rel
Hum
%
Delta-T
°C
Wind Press
QNH
hPa
Press
MSL
hPa
Rain
since 9 am
mm
Dir
 
Spd
km/h
Gust
km/h
Spd
kts
Gust
kts
24/11:30am 8.8 2.3 8.8 100 0.0 WNW 33 48 18 26 1007.3 1007.6 0.4
24/11:00am 8.5 2.8 8.5 100 0.0 WNW 28 43 15 23 1007.3 - 0.0
24/10:30am 8.1 1.6 8.1 100 0.0 WNW 32 50 17 27 1007.3 1007.6 0.0
24/10:06am 7.8 1.0 7.8 100 0.0 WNW 33 52 18 28 1007.1 - 0.0
24/10:00am 7.8 1.2 7.8 100 0.0 WNW 32 46 17 25 1007.1 - 0.0
24/09:38am 7.7 1.1 7.7 100 0.0 WNW 32 50 17 27 1006.8 - 0.0
24/09:30am 7.7 0.9 7.7 100 0.0 WNW 33 46 18 25 1006.6 1007.0 0.0
24/09:00am 7.5 0.7 7.5 100 0.0 WNW 33 59 18 32 1005.9 1006.2 16.6
24/08:30am 7.6 1.0 7.6 100 0.0 NW 32 50 17 27 1005.6 1005.9 16.6
24/08:25am 7.6 1.3 7.6 100 0.0 NW 30 48 16 26 1005.6 - 16.6
24/08:00am 7.7 1.1 7.7 100 0.0 WNW 32 46 17 25 1005.3 - 16.0
24/07:30am 8.0 0.1 8.0 100 0.0 WNW 39 61 21 33 1004.5 1004.8 15.4
24/07:00am 8.4 2.3 8.4 100 0.0 NW 30 50 16 27 1004.4 - 14.6
24/06:58am 8.4 2.3 8.4 100 0.0 NW 30 50 16 27 1004.4 - 14.4
24/06:30am 8.0 2.2 8.0 100 0.0 N 28 39 15 21 1004.3 1004.6 13.4
24/06:00am 7.9 1.7 7.9 100 0.0 N 30 43 16 23 1004.2 1004.5 12.0
24/05:51am 7.9 1.3 7.9 100 0.0 N 32 50 17 27 1004.3 - 11.6
24/05:30am 7.7 0.9 7.7 100 0.0 N 33 44 18 24 1004.4 1004.7 11.6
24/05:13am 7.7 1.1 7.7 100 0.0 N 32 50 17 27 1004.4 - 11.6
24/05:00am 7.7 0.9 7.7 100 0.0 N 33 50 18 27 1004.5 - 11.2
24/04:30am 7.7 0.5 7.6 99 0.0 N 35 54 19 29 1004.2 1004.5 10.6
24/04:04am 7.8 1.0 7.7 99 0.0 NNE 33 52 18 28 1004.3 - 10.2
24/04:00am 7.7 1.1 7.6 99 0.0 NNE 32 43 17 23 1004.4 - 10.2
24/03:32am 7.9 2.0 7.5 97 0.2 NNE 28 46 15 25 1004.7 - 10.2
24/03:30am 7.8 1.9 7.5 98 0.1 NNE 28 41 15 22 1004.7 1005.0 10.2
24/03:00am 7.8 0.0 6.6 92 0.6 NNE 37 54 20 29 1005.1 1005.4 10.0
24/02:56am 8.1 0.7 6.6 90 0.7 NNE 35 54 19 29 1005.1 - 9.8
24/02:30am 8.3 -0.4 5.8 84 1.2 NNE 41 50 22 27 1005.4 1005.7 9.8
24/02:09am 8.4 -0.3 5.9 84 1.2 NE 41 59 22 32 1005.7 - 9.8
24/02:00am 8.5 -0.6 5.8 83 1.3 NNE 43 57 23 31 1005.8 - 9.8
24/01:30am 7.7 0.2 6.2 90 0.7 NE 35 46 19 25 1006.1 1006.4 9.8
24/01:00am 7.7 -0.2 6.3 91 0.7 NE 37 56 20 30 1006.5 - 9.8
24/12:54am 7.9 0.0 6.4 90 0.7 ENE 37 56 20 30 1006.7 - 9.8
24/12:30am 7.2 -1.4 6.6 96 0.3 ENE 41 56 22 30 1007.3 1007.6 9.6
24/12:00am 6.7 -0.7 6.6 99 0.0 ENE 35 50 19 27 1007.5 1007.8 9.6
 
Date/Time
CST
Temp
°C
App
Temp
°C
Dew
Point
Rel
Hum
%
Delta-T
°C
Wind Press
QNH
hPa
Press
MSL
hPa
Rain
since 9 am
mm
Dir
 
Spd
km/h
Gust
km/h
Spd
kts
Gust
kts
23/11:31pm 6.4 -0.5 6.3 99 0.0 ENE 32 50 17 27 1008.3 - 9.4
23/11:30pm 6.4 -0.7 6.3 99 0.0 ENE 33 50 18 27 1008.3 1008.7 9.4
23/11:02pm 6.5 -1.4 6.4 99 0.0 ENE 37 56 20 30 1009.1 - 9.4
23/11:00pm 6.7 -1.5 6.6 99 0.0 ENE 39 56 21 30 1008.7 - 9.4
23/10:58pm 6.6 -1.2 6.5 99 0.0 ENE 37 56 20 30 1008.5 - 9.4
23/10:30pm 6.5 -1.0 6.4 99 0.0 ENE 35 48 19 26 1009.4 1009.7 9.4
23/10:00pm 6.9 -0.9 6.8 99 0.0 ENE 37 48 20 26 1010.2 - 9.4
23/09:40pm 7.0 -0.7 6.9 99 0.0 ENE 37 57 20 31 1010.4 - 9.4
23/09:30pm 6.5 -0.6 6.4 99 0.0 ENE 33 43 18 23 1010.7 1011.1 9.4
23/09:00pm 6.7 0.6 6.6 99 0.0 NE 28 35 15 19 1011.9 1012.3 9.0
23/08:30pm 6.9 0.4 6.5 97 0.2 NE 30 43 16 23 1012.1 1012.5 8.0
23/08:00pm 6.9 0.0 6.3 96 0.3 NE 32 37 17 20 1012.2 - 6.8
23/07:30pm 6.9 2.2 6.0 94 0.4 NNE 20 26 11 14 1012.4 1012.8 5.6
23/07:00pm 6.9 1.0 6.0 94 0.4 NE 26 32 14 17 1012.1 - 4.6
23/06:30pm 7.2 -0.5 5.5 89 0.8 ENE 35 44 19 24 1011.8 1012.2 3.0
23/06:00pm 8.1 0.8 4.5 78 1.6 NE 32 41 17 22 1012.0 1012.4 1.8
23/05:35pm 8.8 0.0 3.4 69 2.4 ENE 39 57 21 31 1011.6 - 1.6
23/05:30pm 8.7 -0.5 3.5 70 2.3 ENE 41 57 22 31 1011.4 1011.8 1.6
23/05:00pm 8.1 0.2 4.3 77 1.7 ENE 35 52 19 28 1011.3 - 1.6
23/04:30pm 8.0 -0.6 4.4 78 1.6 ENE 39 52 21 28 1011.2 1011.5 1.6
23/04:15pm 8.2 -1.2 4.4 77 1.7 ENE 43 61 23 33 1011.2 - 1.6
23/04:00pm 8.1 -0.9 4.5 78 1.6 ENE 41 50 22 27 1011.2 - 1.6
23/03:30pm 8.1 -0.9 4.7 79 1.5 ENE 41 57 22 31 1011.4 1011.8 1.6
23/03:26pm 8.0 -0.2 4.6 79 1.5 ENE 37 57 20 31 1011.4 - 1.6
23/03:00pm 7.9 -0.5 5.5 85 1.1 ENE 39 56 21 30 1011.4 1011.8 1.6
23/02:58pm 8.0 0.0 5.5 84 1.2 ENE 37 56 20 30 1011.3 - 1.6
23/02:30pm 7.8 -0.5 6.1 89 0.8 ENE 39 50 21 27 1011.6 1012.0 1.6
23/02:00pm 7.8 1.9 7.5 98 0.1 E 28 37 15 20 1012.4 - 1.6
23/01:30pm 8.3 4.9 7.5 95 0.4 NE 15 22 8 12 1014.1 1014.5 1.2
23/01:00pm 8.8 4.7 6.2 84 1.2 NE 17 22 9 12 1014.6 - 0.4
23/12:30pm 9.7 4.9 4.5 70 2.4 NNE 19 26 10 14 1015.2 1015.6 0.0
23/12:00pm 10.5 5.3 3.5 62 3.2 N 20 30 11 16 1016.0 1016.4 0.0
23/11:30am 10.7 5.6 3.3 60 3.3 N 19 28 10 15 1016.8 1017.3 0.0
23/11:00am 11.7 6.3 2.5 53 4.1 N 20 30 11 16 1017.5 - 0.0
23/10:30am 11.8 5.9 2.0 51 4.3 NNE 22 28 12 15 1017.5 1017.9 0.0
23/10:00am 11.1 4.9 1.9 53 4.0 NNE 24 32 13 17 1017.8 - 0.0
23/09:30am 9.8 5.0 2.6 61 3.2 NE 17 24 9 13 1017.9 1018.4 0.0
23/09:00am 8.9 3.4 1.6 60 3.1 NE 20 28 11 15 1017.7 1018.1 0.0
23/08:30am 8.3 2.9 1.2 61 3.0 ENE 19 22 10 12 1017.5 1017.9 0.0
23/08:00am 8.2 2.8 1.1 61 3.0 ENE 19 26 10 14 1017.7 - 0.0
23/07:30am 8.3 2.9 1.0 60 3.0 ENE 19 24 10 13 1017.9 1018.4 0.0
23/07:00am 8.0 2.4 1.2 62 2.8 ENE 20 26 11 14 1017.9 - 0.0
23/06:30am 8.2 2.6 1.4 62 2.9 ENE 20 28 11 15 1017.9 1018.4 0.0
23/06:00am 8.5 2.5 1.2 60 3.1 ENE 22 32 12 17 1017.8 1018.3 0.0
23/05:30am 8.7 1.9 1.1 59 3.2 ENE 26 35 14 19 1017.7 1018.1 0.0
23/05:00am 8.5 1.7 1.0 59 3.1 ENE 26 33 14 18 1017.8 - 0.0
23/04:30am 8.6 2.2 0.8 58 3.2 ENE 24 32 13 17 1018.0 1018.5 0.0
23/04:00am 8.6 1.8 0.6 57 3.3 ENE 26 33 14 18 1018.5 - 0.0
23/03:30am 8.7 1.9 0.7 57 3.3 ENE 26 35 14 19 1018.5 1019.0 0.0
23/03:00am 8.7 1.9 0.9 58 3.3 ENE 26 39 14 21 1018.8 1019.3 0.0
23/02:30am 9.0 1.5 1.2 58 3.3 ENE 30 37 16 20 1019.0 1019.5 0.0
23/02:00am 8.8 1.3 1.2 59 3.2 ENE 30 37 16 20 1019.6 - 0.0
23/01:30am 8.7 1.2 1.1 59 3.2 ENE 30 35 16 19 1019.5 1020.0 0.0
23/01:00am 8.7 0.8 1.1 59 3.2 NE 32 41 17 22 1019.3 - 0.0
23/12:30am 8.7 0.6 1.1 59 3.2 NE 33 44 18 24 1019.7 1020.2 0.0
23/12:00am 8.5 1.1 1.6 62 2.9 NE 30 37 16 20 1020.3 1020.8 0.0
 
Date/Time
CST
Temp
°C
App
Temp
°C
Dew
Point
Rel
Hum
%
Delta-T
°C
Wind Press
QNH
hPa
Press
MSL
hPa
Rain
since 9 am
mm
Dir
 
Spd
km/h
Gust
km/h
Spd
kts
Gust
kts
22/11:30pm 8.1 1.1 1.9 65 2.6 ENE 28 37 15 20 1020.6 1021.1 0.0
22/11:00pm 8.3 1.3 2.1 65 2.7 ENE 28 37 15 20 1020.6 - 0.0
22/10:30pm 8.5 1.1 2.1 64 2.7 ENE 30 37 16 20 1020.7 1021.2 0.0
22/10:00pm 8.9 2.0 2.3 63 2.9 ENE 28 39 15 21 1020.7 - 0.0
22/09:30pm 9.2 2.2 2.1 61 3.1 ENE 28 37 15 20 1020.7 1021.2 0.0
22/09:00pm 9.4 2.8 2.0 60 3.2 ENE 26 35 14 19 1021.2 1021.7 0.0
22/08:30pm 9.8 3.1 1.7 57 3.5 ENE 26 32 14 17 1020.9 1021.5 0.0
22/08:00pm 9.9 3.6 1.8 57 3.5 ENE 24 28 13 15 1021.0 - 0.0
22/07:30pm 9.7 3.5 2.1 59 3.3 ENE 24 30 13 16 1021.2 1021.7 0.0
22/07:00pm 9.8 3.7 2.6 61 3.2 ENE 24 30 13 16 1021.2 - 0.0
22/06:30pm 9.8 4.1 2.9 62 3.0 ENE 22 28 12 15 1021.2 1021.7 0.0
22/06:00pm 10.3 4.7 3.6 63 3.0 ENE 22 28 12 15 1021.0 1021.6 0.0
22/05:30pm 10.3 5.8 4.0 65 2.9 ENE 17 22 9 12 1021.2 1021.7 0.0
22/05:00pm 11.2 6.3 4.2 62 3.2 NE 19 24 10 13 1020.8 - 0.0
22/04:30pm 11.9 7.1 4.9 62 3.3 NE 19 28 10 15 1020.8 1021.3 0.0
22/04:00pm 12.7 8.7 4.9 59 3.7 NE 15 20 8 11 1020.8 - 0.0
22/03:30pm 13.6 9.4 3.7 51 4.6 NNE 15 22 8 12 1020.9 1021.5 0.0
22/03:00pm 13.8 9.5 3.3 49 4.8 NNE 15 19 8 10 1021.0 1021.6 0.0
22/02:30pm 13.6 8.9 3.1 49 4.8 NNE 17 22 9 12 1021.0 1021.6 0.0
22/02:00pm 13.5 8.4 3.0 49 4.8 NE 19 24 10 13 1021.0 - 0.0
22/01:30pm 13.6 8.4 2.5 47 5.0 NE 19 24 10 13 1021.2 1021.7 0.0
22/01:00pm 13.7 8.6 4.3 53 4.4 NE 20 24 11 13 1021.6 - 0.0
22/12:30pm 13.9 9.1 4.8 54 4.3 NE 19 24 10 13 1022.1 1022.6 0.0
22/12:00pm 13.4 8.9 4.0 53 4.4 NE 17 22 9 12 1022.7 1023.3 0.0
22/11:30am 13.4 9.0 4.6 55 4.2 NE 17 22 9 12 1023.0 1023.6 0.0
22/11:00am 12.8 8.2 3.7 54 4.2 NE 17 22 9 12 1023.4 - 0.0
22/10:30am 12.0 6.9 4.2 59 3.6 NE 20 28 11 15 1023.6 1024.1 0.0
22/10:00am 11.3 6.3 3.6 59 3.5 NE 19 24 10 13 1023.8 - 0.0
22/09:30am 10.9 5.8 3.2 59 3.5 ENE 19 24 10 13 1023.6 1024.1 0.0
22/09:00am 10.1 5.2 2.2 58 3.4 ENE 17 20 9 11 1023.5 1024.0 0.0
22/08:30am 9.5 4.9 1.4 57 3.4 ENE 15 20 8 11 1023.3 1023.8 0.0
22/08:00am 8.9 5.0 0.9 57 3.4 ENE 11 13 6 7 1023.2 - 0.0
22/07:30am 8.3 4.3 0.5 58 3.2 ENE 11 13 6 7 1023.2 1023.7 0.0
22/07:00am 8.0 4.0 0.5 59 3.1 NE 11 13 6 7 1022.8 - 0.0
22/06:30am 8.0 4.0 0.7 60 3.0 ENE 11 13 6 7 1022.4 1022.9 0.0
22/06:00am 8.4 4.1 0.9 59 3.1 NE 13 15 7 8 1022.2 1022.7 0.0
22/05:30am 8.0 4.1 1.0 61 2.9 NE 11 15 6 8 1022.0 1022.5 0.0
22/05:00am 7.6 3.7 1.2 64 2.7 NE 11 13 6 7 1022.1 - 0.0
22/04:30am 7.3 3.1 1.4 66 2.5 NE 13 17 7 9 1022.0 1022.5 0.0
22/04:00am 7.6 3.0 1.5 65 2.6 NE 15 17 8 9 1021.9 - 0.0
22/03:30am 7.6 3.0 1.7 66 2.5 ENE 15 19 8 10 1021.9 1022.4 0.0
22/03:00am 7.2 2.7 1.9 69 2.2 ENE 15 20 8 11 1021.9 1022.4 0.0
22/02:30am 7.2 2.3 1.9 69 2.2 ENE 17 19 9 10 1022.0 1022.5 0.0
22/02:00am 7.2 3.1 2.1 70 2.2 ENE 13 17 7 9 1022.0 - 0.0
22/01:30am 7.3 2.9 2.6 72 2.0 ENE 15 19 8 10 1022.1 1022.6 0.0
22/01:00am 7.6 3.2 2.7 71 2.1 ENE 15 19 8 10 1022.1 - 0.0
22/12:30am 7.2 2.9 3.1 75 1.8 ENE 15 19 8 10 1022.2 1022.7 0.0
22/12:00am 7.1 2.4 3.3 77 1.7 ENE 17 22 9 12 1022.3 1022.8 0.0
 
Date/Time
CST
Temp
°C
App
Temp
°C
Dew
Point
Rel
Hum
%
Delta-T
°C
Wind Press
QNH
hPa
Press
MSL
hPa
Rain
since 9 am
mm
Dir
 
Spd
km/h
Gust
km/h
Spd
kts
Gust
kts
21/11:30pm 7.1 2.4 3.2 76 1.7 ENE 17 20 9 11 1022.3 1022.8 0.0
21/11:00pm 7.3 3.0 3.4 76 1.7 E 15 19 8 10 1022.2 - 0.0
21/10:30pm 7.7 3.0 3.0 72 2.0 ENE 17 19 9 10 1022.3 1022.8 0.0
21/10:00pm 7.8 3.2 3.8 76 1.8 ENE 17 19 9 10 1022.3 - 0.0
21/09:30pm 7.8 3.4 4.6 80 1.4 ENE 17 19 9 10 1022.2 1022.7 0.0
21/09:00pm 8.0 3.6 4.6 79 1.5 ENE 17 20 9 11 1022.1 1022.6 0.0
21/08:30pm 8.5 4.6 5.3 80 1.5 ENE 15 19 8 10 1022.0 1022.5 0.0
21/08:00pm 8.4 4.6 3.8 73 2.1 E 13 17 7 9 1021.9 - 0.0
21/07:30pm 8.8 5.4 4.0 72 2.2 ENE 11 13 6 7 1021.8 1022.3 0.0
21/07:00pm 8.6 5.6 4.2 74 2.0 ENE 9 11 5 6 1021.8 - 0.0
21/06:30pm 8.7 6.2 4.5 75 1.9 E 7 9 4 5 1021.6 1022.1 0.0
21/06:00pm 9.7 8.2 3.0 63 3.0 CALM 0 0 0 0 1021.3 1021.8 0.0
21/05:30pm 9.5 7.7 3.5 66 2.7 ESE 2 6 1 3 1021.0 1021.6 0.0
21/05:00pm 9.9 7.7 5.1 72 2.2 N 6 7 3 4 1020.5 - 0.0
21/04:30pm 9.9 6.9 4.1 67 2.6 N 9 11 5 6 1020.5 1021.0 0.0
21/04:00pm 10.4 7.3 3.4 62 3.2 NNW 9 15 5 8 1020.4 - 0.0
21/03:30pm 10.9 7.9 3.9 62 3.2 NNW 9 11 5 6 1020.3 1020.8 0.0
21/03:00pm 11.5 7.6 3.3 57 3.7 NW 13 19 7 10 1020.2 1020.7 0.0
21/02:30pm 11.9 8.0 3.4 56 3.9 NW 13 19 7 10 1020.3 1020.8 0.0
21/02:00pm 11.1 7.5 3.2 58 3.6 N 11 17 6 9 1020.3 - 0.0
21/01:30pm 10.7 6.5 4.0 63 3.1 N 15 17 8 9 1020.5 1021.0 0.0
21/01:00pm 10.6 6.5 4.3 65 2.9 N 15 19 8 10 1020.7 - 0.0
21/12:30pm 10.5 6.1 4.6 67 2.7 N 17 20 9 11 1021.0 1021.6 0.0
21/12:00pm 10.4 6.7 4.3 66 2.8 N 13 19 7 10 1021.6 1022.1 0.0

Other Formats:

Comma delimited format used in spreadsheet applications
http://www.bom.gov.au/fwo/IDS60801/IDS60801.94678.axf

JavaScript Object Notation format (JSON) in row-major order
http://www.bom.gov.au/fwo/IDS60801/IDS60801.94678.json